This demonstration page uses our WeatherBlox Daily Observations layout. Learn more.

Left ArrowRight Arrow

34.02893, -84.19858

Hourly Observations for June 25, 2020

Temp ( °F °C ) Dew Point ( °F °C ) Humidity (%) Winds ( mph kmh ) Pressure ( in mb ) Visibility ( mi km ) Precip ( " mm )
12:53 am 00:53 Cloudy with Light Rain 69 20.6 68 20 96 96 WSW 5 7 29.98 1015 3 5 0.03 0.76
12:57 am 00:57 Cloudy with Rain 69 20.6 68 20 96 96 Calm 29.99 1016 3 4 0.03 0.76
1:09 am 01:09 Cloudy with Light Rain 68 20 68 20 100 100 SSE 5 7 29.99 1016 5 8 0.03 0.76
1:19 am 01:19 Cloudy with Light Rain 68 20 68 20 100 100 SSE 3 6 29.99 1016 6 10 0.04 1.02
1:51 am 01:51 Cloudy with Light Rain 68 20 68 20 100 100 Calm 29.98 1015 6 10 0.06 1.52
1:53 am 01:53 Cloudy with Light Rain 68 20 68 20 100 100 Calm 29.96 1015 5 8 0.06 1.52
2:22 am 02:22 Cloudy with Mist and Fog 68 20 68 20 100 100 Calm 29.97 1015 6 10 0.01 0.25
2:29 am 02:29 Cloudy with Light Rain 68 20 68 20 100 100 Calm 29.97 1015 5 8 0.01 0.25
2:53 am 02:53 Cloudy with Mist and Fog 68 20 68 20 100 100 Calm 29.96 1015 3 5 0.02 0.51
3:53 am 03:53 Cloudy with Light Rain 69 20.6 68 20 96 96 SW 5 7 29.95 1014 3 5 0.01 0.25
4:09 am 04:09 Cloudy 69 20.6 68 20 96 96 SW 6 9 29.96 1015 10 16 0.00 0.00
4:18 am 04:18 Cloudy 69 20.6 69 20.6 100 100 SW 7 11 29.95 1014 10 16 0.00 0.00
4:33 am 04:33 Cloudy 69 20.6 68 20 96 96 WSW 7 11 29.96 1015 10 16 0.00 0.00
4:43 am 04:43 Mostly Cloudy 69 20.6 68 20 96 96 WSW 7 11 29.96 1015 10 16 0.00 0.00
4:53 am 04:53 Mostly Cloudy 69 20.6 68 20 96 96 WSW 7 11 29.95 1014 10 16 0.00 0.00
5:53 am 05:53 Cloudy 69 20.6 68 20 96 96 W 8 13 29.98 1015 10 16 0.00 0.00
6:02 am 06:02 Cloudy 69 20.6 68 20 96 96 W 7 11 29.99 1016 10 16 0.00 0.00
6:53 am 06:53 Partly Cloudy 69 20.6 68 20 96 96 W 3 6 30.01 1016 10 16 0.00 0.00
7:09 am 07:09 Mostly Cloudy 69 20.6 68 20 96 96 WSW 5 7 30.02 1017 10 16 0.00 0.00
7:35 am 07:35 Mostly Cloudy 69 20.6 68 20 96 96 WNW 5 7 30.03 1017 10 16 0.00 0.00
7:53 am 07:53 Mostly Cloudy 69 20.6 68 20 96 96 WNW 5 7 30.03 1017 10 16 0.00 0.00
8:53 am 08:53 Mostly Cloudy 70 21.1 68 20 93 93 W 6 9 30.05 1018 10 16 0.00 0.00
8:55 am 08:55 Cloudy 70 21.1 68 20 93 93 W 7 11 30.06 1018 10 16 0.00 0.00
9:06 am 09:06 Cloudy 70 21.1 69 20.6 97 97 W 6 9 30.06 1018 10 16 0.00 0.00
9:53 am 09:53 Cloudy 72 22.2 69 20.6 91 91 W 8 13 30.07 1018 10 16 0.00 0.00
10:00 am 10:00 Cloudy 72 22.2 69 20.6 91 91 W 8 13 30.08 1018 10 16 0.00 0.00
10:53 am 10:53 Cloudy 74 23.3 69 20.6 85 85 WNW 7 11 30.08 1019 10 16 0.00 0.00
11:04 am 11:04 Cloudy 76 24.4 69 20.6 79 79 WNW 8 13 30.09 1019 10 16 0.00 0.00
11:53 am 11:53 Cloudy 76 24.4 68 20 77 77 WNW 7 11 30.09 1019 10 16 0.00 0.00
12:26 pm 12:26 Cloudy 78 25.6 69 20.6 74 74 VRB 6 9 30.08 1019 10 16 0.00 0.00
12:53 pm 12:53 Mostly Cloudy 78 25.6 68 20 71 71 W 6 9 30.09 1019 10 16 0.00 0.00
1:53 pm 13:53 Mostly Cloudy 80 26.7 69 20.6 69 69 VRB 5 7 30.09 1019 10 16 0.00 0.00
2:53 pm 14:53 Mostly Cloudy 80 26.7 69 20.6 69 69 W 5 7 30.07 1018 10 16 0.00 0.00
3:53 pm 15:53 Mostly Cloudy 82 27.8 68 20 63 63 W 9 15 30.06 1018 10 16 0.00 0.00
4:53 pm 16:53 Cloudy 82 27.8 69 20.6 65 65 WSW 7 11 30.05 1018 10 16 0.00 0.00
5:53 pm 17:53 Mostly Cloudy 81 27.2 69 20.6 67 67 SW 6 9 30.04 1017 10 16 0.00 0.00
6:53 pm 18:53 Mostly Cloudy 77 25 71 21.7 82 82 SW 9 15 30.06 1018 10 16 0.00 0.00
7:53 pm 19:53 Mostly Cloudy 77 25 71 21.7 82 82 SW 9 15 30.06 1018 10 16 0.00 0.00
8:53 pm 20:53 Mostly Cloudy 76 24.4 71 21.7 85 85 SW 9 15 30.08 1019 10 16 0.00 0.00
9:53 pm 21:53 Mostly Cloudy 75 23.9 71 21.7 88 88 SW 7 11 30.09 1019 10 16 0.00 0.00
10:53 pm 22:53 Clear 74 23.3 71 21.7 91 91 WSW 6 9 30.11 1020 10 16 0.00 0.00
11:53 pm 23:53 Clear 74 23.3 71 21.7 91 91 W 6 9 30.11 1020 10 16 0.00 0.00

Powered by AerisWeather